#timestamp,LO_Frequency,Hit,StdDev 
1503025215.0,286046997.7,N,1.7
1503025215.9,286046997.7,N,1.8
1503025235.8,286046997.8,N,1.8
1503025255.6,286046997.9,N,1.9
1503025275.4,286046997.5,N,1.9
1503025295.3,286046995.4,N,2.0
1503025315.1,286046995.5,N,2.1
1503025335.8,286046995.7,N,2.1
1503025355.7,286046996.0,N,2.2
1503025375.5,286046993.5,Y,0.0
1503025395.3,286046993.6,P,2.8
1503025415.2,286046996.4,N,2.3
1503025435.0,286046995.7,N,2.0
1503025435.9,286046995.7,N,1.8
1503025455.7,286046996.1,N,1.6
1503025475.6,286046994.9,Y,0.0
1503025495.4,286047000.2,P,2.0
1503025515.3,286047001.0,N,2.1
1503025535.1,286047001.0,N,2.0
1503025536.0,286047001.0,N,1.9
1503025555.8,286046999.2,N,1.8
1503025575.7,286046998.8,N,1.7
1503025595.5,286046998.9,N,1.6
1503025615.3,286046998.9,N,1.5
1503025635.2,286047001.1,N,1.5
1503025655.9,286047001.1,N,1.5
1503025675.7,286046998.8,N,1.5
1503025695.6,286046996.5,N,1.6
1503025715.4,286046998.9,N,1.6
1503025735.2,286046997.0,N,1.6
1503025755.1,286046999.5,N,1.6
1503025756.0,286046999.5,N,1.5
1503025775.8,286046997.5,N,1.6
1503025795.6,286046997.1,N,1.6
1503025815.5,286046997.4,N,1.6
1503025835.3,286046997.5,N,1.6
1503025855.1,286046997.8,N,1.6
1503025875.9,286046997.9,N,1.5
1503025895.7,286046994.9,Y,0.0
1503025915.5,286046999.0,P,0.1
1503025935.4,286046999.1,P,0.1
1503025955.2,286046999.4,P,0.2
1503025975.0,286046999.5,N,0.3
1503025975.9,286046999.5,N,0.3
1503025995.8,286046999.0,Y,0.0
1503026015.6,286047001.0,P,0.9
1503026065.5,286047001.2,E,nan
1503026075.4,286047001.2,N,0.0
1503026095.2,286046998.8,P,1.2
1503026115.1,286046999.3,N,1.0
1503026116.0,286046999.3,N,0.9
1503026135.8,286046999.5,N,0.8
1503026155.6,286046997.0,Y,0.0
1503026175.5,286046999.5,P,0.1
1503026195.3,286046999.6,P,0.1
1503026215.1,286046996.8,P,1.2
1503026235.9,286046996.9,N,1.3
1503026255.7,286046999.6,N,1.3
1503026275.5,286046996.7,N,1.4
1503026295.4,286046997.1,N,1.4
1503026315.2,286046995.4,Y,0.0
1503026335.0,286046996.8,P,0.7
1503026335.9,286046996.8,P,0.7
1503026355.8,286046999.2,N,1.0
1503026375.6,286046999.1,N,1.1
1503026395.5,286047001.2,N,1.5
1503026415.3,286047001.1,N,1.7
1503026435.1,286046999.0,N,1.6
1503026455.9,286046996.5,N,1.7
1503026475.7,286046999.6,N,1.6
1503026495.5,286046996.9,N,1.6
1503026515.4,286046999.5,N,1.6
1503026535.2,286046997.6,N,1.5
1503026555.0,286046994.9,Y,0.0
1503026555.9,286046994.9,P,1.8
1503026575.8,286046999.5,N,2.0
1503026595.6,286046999.1,N,1.8
1503026615.4,286046999.1,N,1.7
1503026635.3,286046998.9,N,1.6
1503026655.1,286046998.9,N,1.5
1503026675.8,286046999.1,N,1.4
1503026695.7,286046999.0,N,1.3
1503026715.5,286047001.0,N,1.4
1503026735.3,286047000.5,N,1.5
1503026755.2,286047001.1,N,1.5
1503026775.0,286046998.3,N,1.5
1503026775.9,286046998.3,N,1.4
1503026795.7,286046998.6,N,1.4
1503026815.6,286047000.8,N,1.4
1503026835.4,286047000.9,N,1.4
1503026855.2,286047000.6,N,1.4
1503026875.1,286047000.9,N,1.4
1503026876.0,286047000.9,N,1.4
1503026895.8,286047000.4,N,1.4
1503026915.6,286047000.9,N,1.4
1503026935.5,286047000.0,N,1.4
1503026955.3,286047000.2,N,1.4
1503026975.1,286047002.5,N,1.5
1503026995.9,286047002.2,N,1.5
1503027015.7,286046999.8,N,1.5
1503027035.5,286047001.5,N,1.5
1503027055.4,286047002.7,N,1.5
1503027075.2,286047002.4,N,1.6
1503027095.0,286047001.9,N,1.6
1503027096.0,286047001.9,N,1.3
1503027115.8,286047001.8,N,1.3
1503027135.6,286047002.0,N,1.3
1503027155.5,286047001.5,N,1.3
1503027175.3,286047001.4,N,1.2
1503027195.1,286047002.1,N,1.2
1503027215.9,286047001.7,N,1.2
1503027235.7,286047003.6,Y,0.0
1503027255.5,286047001.4,P,0.2
1503027275.4,286047001.7,P,0.3
1503027295.2,286047001.9,P,0.4
1503027315.0,286047001.5,Y,0.0
1503027315.9,286047001.5,P,0.0
1503027335.8,286047002.2,P,0.3
1503027355.6,286047002.2,P,0.4
1503027375.4,286047002.4,Y,0.0
1503027395.3,286046998.2,P,1.8
1503027415.1,286046998.2,N,1.7
1503027435.8,286047000.9,N,1.6
1503027455.7,286047001.1,N,1.5
1503027475.5,286047000.4,N,1.4
1503027495.3,286047000.8,N,1.3
1503027515.2,286047000.3,N,1.2
1503027535.0,286047000.2,N,1.2
1503027535.9,286047000.2,N,1.1
1503027555.7,286047002.8,N,1.3
1503027575.6,286047000.1,N,1.2
1503027595.4,286047002.4,N,1.3
1503027615.2,286047002.7,N,1.4
1503027635.1,286047002.2,N,1.4
1503027636.0,286047002.2,N,1.4
1503027655.8,286047002.4,N,1.4
1503027675.7,286047002.7,N,1.4
1503027695.5,286047003.9,N,1.5
1503027715.3,286047001.5,N,1.5
1503027735.2,286047002.2,N,1.4
1503027755.9,286047001.9,N,1.4
1503027775.7,286047002.2,N,1.4
1503027795.6,286047002.6,N,1.4
1503027815.4,286047001.8,N,1.4
1503027835.2,286047004.4,Y,0.0
1503027855.1,286047000.0,P,0.7
1503027856.0,286047000.0,N,0.7
1503027875.8,286046999.8,N,0.7
1503027895.6,286047000.4,N,0.6
1503027915.5,286047000.6,N,0.5
1503027935.3,286046999.9,N,0.5
1503027955.1,286047002.7,Y,0.0
1503027975.9,286047002.4,P,1.0
1503027995.7,286047002.4,N,1.0
1503028015.5,286047002.6,N,0.9
1503028035.4,286047000.1,N,1.1
1503028055.2,286047000.3,N,1.1
1503028075.0,286047002.1,N,1.1
1503028075.9,286047002.1,N,1.0
1503028095.8,286047002.7,N,1.0
1503028115.6,286047000.1,N,1.1
1503028135.4,286047002.8,N,1.1
1503028155.3,286047002.8,N,1.1
1503028175.1,286047002.7,N,1.1
1503028195.8,286047002.8,N,1.1
1503028215.7,286046999.7,N,1.2
1503028235.5,286047002.0,N,1.1
1503028255.3,286046999.8,N,1.2
1503028275.2,286047002.8,N,1.2
1503028295.0,286047000.0,N,1.2
1503028295.9,286047000.0,N,1.2
1503028315.8,286047002.6,N,1.2
1503028335.6,286047000.2,N,1.2
1503028355.4,286046999.8,N,1.3
1503028375.3,286047000.2,N,1.3
1503028395.1,286047002.6,N,1.3
1503028396.0,286047002.6,N,1.3
1503028415.8,286047001.5,N,1.2
1503028435.7,286047002.6,N,1.2
1503028455.5,286047002.4,N,1.2
1503028475.3,286047001.9,N,1.2
1503028495.2,286047001.6,N,1.2
1503028515.9,286047000.1,N,1.2
1503028535.7,286047001.8,N,1.2
1503028555.6,286047001.5,N,1.2
1503028575.4,286047001.7,N,1.1
1503028595.2,286047002.0,N,1.1
1503028615.1,286047002.1,N,1.1
1503028616.0,286047002.1,N,1.1
1503028635.8,286047002.7,N,1.1
1503028655.6,286047001.6,N,1.1
1503028675.5,286047001.7,N,1.1
1503028695.3,286047001.9,N,1.0
1503028715.1,286047002.1,N,1.0
1503028735.9,286047002.0,N,1.0
1503028755.7,286047001.7,N,0.9
1503028775.6,286047004.4,Y,0.0
1503028795.4,286046999.8,P,0.9
